CST,Max TemperatureF,Mean TemperatureF,Min TemperatureF,Max Dew PointF,MeanDew PointF,Min DewpointF,Max Humidity, Mean Humidity, Min Humidity, Max Sea Level PressureIn, Mean Sea Level PressureIn, Min Sea Level PressureIn, Max VisibilityMiles, Mean VisibilityMiles, Min VisibilityMiles, Max Wind SpeedMPH, Mean Wind SpeedMPH, Max Gust SpeedMPH,PrecipitationIn, CloudCover, Events, WindDirDegrees
2012-12-1,69,51,33,52,42,34,100,79,43,30.33,30.27,30.22,10,9,0,16,3,20,0.00,1,Fog,190
2012-12-2,71,60,46,54,49,43,100,74,50,30.33,30.26,30.21,10,10,10,17,6,21,0.00,5,,199
2012-12-3,71,58,44,54,47,43,100,74,41,30.28,30.22,30.18,10,10,7,14,3,20,0.00,1,,190
2012-12-4,69,60,51,63,56,50,100,87,60,30.26,30.20,30.15,10,9,0,18,7,26,0.00,7,Fog-Rain,196
2012-12-5,60,56,51,55,49,41,100,79,51,30.28,30.21,30.16,10,8,0,12,4,,0.00,8,Fog,59
2012-12-6,68,60,51,55,51,46,94,72,56,30.11,30.05,30.02,10,10,10,12,4,,0.00,7,,163
2012-12-7,62,56,51,57,52,45,94,83,76,30.04,29.99,29.93,10,10,7,13,6,,0.00,7,,165
2012-12-8,68,62,57,61,57,54,100,86,60,30.01,29.97,29.93,10,8,5,12,6,16,0.00,6,,199
2012-12-9,69,64,60,61,58,54,100,81,60,30.02,29.95,29.83,10,9,5,17,9,23,0.00,5,,186
2012-12-10,66,50,35,63,48,32,100,94,81,30.03,29.85,29.75,10,8,1,17,10,25,0.00,8,Rain,287
2012-12-11,42,36,30,32,29,27,100,79,53,30.26,30.14,30.03,10,10,10,12,7,,0.00,4,,3
2012-12-12,46,37,28,30,27,23,100,72,40,30.35,30.29,30.25,10,10,10,13,3,16,0.00,1,,18
2012-12-13,53,38,24,32,28,16,100,78,22,30.41,30.35,30.30,10,10,10,5,0,,0.00,0,,72
2012-12-14,59,44,28,41,35,27,100,77,42,30.36,30.27,30.15,10,10,10,9,1,,0.00,0,,130
2012-12-15,60,52,44,54,48,39,100,79,68,30.18,30.05,29.93,10,10,7,18,7,26,0.00,7,Rain,186
2012-12-16,62,58,55,61,57,54,100,94,82,29.94,29.87,29.78,10,9,2,23,12,25,0.00,8,Rain,192
2012-12-17,62,54,44,59,53,39,100,89,68,29.85,29.76,29.67,10,9,2,14,9,22,0.00,5,Rain,232
2012-12-18,59,46,33,41,37,32,100,77,36,30.01,29.94,29.86,10,8,0,10,4,,0.00,0,Fog,205
2012-12-19,68,52,35,43,39,36,100,69,30,30.08,30.00,29.90,10,10,10,16,3,23,0.00,0,,171
2012-12-20,60,55,50,61,48,36,100,79,55,29.88,29.74,29.62,10,9,3,40,15,52,0.00,7,Rain,206
2012-12-21,44,36,28,21,17,12,74,46,27,30.32,30.24,30.18,10,10,10,20,14,29,0.00,0,,306
2012-12-22,53,38,23,30,22,12,93,67,26,30.39,30.29,30.18,10,10,10,6,0,,0.00,0,,206
2012-12-23,50,41,32,50,38,25,100,83,57,30.18,30.07,29.92,10,9,4,15,4,22,0.00,5,Rain,202
2012-12-24,62,50,39,57,49,39,100,90,59,29.98,29.89,29.82,10,9,2,15,8,18,0.00,5,Rain,256
2012-12-25,53,46,41,52,46,41,100,99,93,30.01,29.84,29.42,10,5,1,20,8,26,0.00,8,Rain,68
2012-12-26,53,43,33,52,33,28,100,86,71,30.16,29.82,29.42,10,9,2,26,15,36,0.00,8,Rain,288
2012-12-27,35,32,30,30,29,28,100,86,75,30.21,30.15,30.09,10,10,5,10,5,,0.00,7,,20
2012-12-28,42,36,30,43,35,30,100,92,81,30.12,29.96,29.75,10,9,2,16,4,18,0.00,8,Rain,125
2012-12-29,41,36,32,41,31,23,100,85,69,30.41,30.13,29.84,10,10,2,20,11,26,0.00,8,Rain,306
2012-12-30,41,32,24,30,24,21,100,75,52,30.55,30.45,30.38,10,10,10,12,5,16,0.00,1,,17
2012-12-31,50,40,30,43,32,28,100,74,53,30.38,30.25,30.04,10,10,10,13,3,,0.00,5,,175